SCP
-0 -0 -0 -0 -0 0 -0 -0 -0 -0 -0 -0 -0 -0 -0 -0 -0 0 0 0 0 -0 -0 0 0 0 0 0 0 0 0 0 -0 -0 -0 -0 -0 -0 -0 -0 -0 0 -0
-0 -0 -0 -0 -0 -0 -0 -0 -0 -0 -0 -0 -0 -0 -0 -0 -0 -0 0 0 0 -0 0 0 0 0 0 0 0 0 0 0 0 0 -0 -0 -0 -0 -0 -0 -0 0 0
-0 -0 0 -0 -0 -0 -0 -0 -0 -0 -0 -0 0 0 0 0 -0 -0 0 0 0 0 -0 -0 -0 -0 0 0 0 0 0 0 -0 0 -0 -0 -0 -0 -0 -0 -0 -0 0
-0 -0 -0 -0 -0 -0 -0 -0 0 -0 -0 -0 0 0 -0 -0 -0 -0 -0 0 0 0 0 0 -0 -0 -0 -0 0 0 0 -0 -0 -0 0 0 0 0 0 0 0 0 0
-0 -0 -0 -0 -0 -0 -0 -0 -0 -0 -0 -0 -0 0 -0 0 -0 -0 -0 -0 0 0 0 0 0 -0 -0 -0 -0 0 0 -0 -0 0 0 0 0 0 0 0 0 0 0
-0 -0 -0 -0 -0 -0 -0 -0 -0 -0 -0 -0 -0 0 0 -0 -0 -0 -0 -0 -0 0 0 0 -0 -0 0 -0 0 0 0 -0 -0 0 0 0 0 0 0 0 0 0 0
-0 -0 -0 -0 -0 -0 -0 -0 -0 0 0 -0 -0 -0 -0 -0 -0 -0 -0 -0 -0 0 0 0 0 0 0 0 0 0 -0 -0 0 0 0 0 0 0 0 0 0 0 0
-0 -0 -0 -0 -0 -0 -0 -0 -0 0 0 0 -0 -0 -0 0 0 0 0 0 -0 0 0 0 0 0 0 0 0 0 -0 -0 -0 0 0 0 0 0 0 0 0 0 0
-0 -0 -0 -0 -0 -0 -0 -0 -0 -0 0 0 0 0 0 -0 0 0 0 0 0 0 0 0 0 0 0 0 0 0 -0 -0 0 0 0 0 0 0 0 0 0 0 0
-0 0 0 -0 -0 -0 -0 -0 -0 -0 -0 0 0 0 -0 -0 -0 0 0 0 0 0 0 -0 0 0 0 0 0 0 0 -0 0 0 0 0 0 0 0 0 0 0 0
-0 -0 -0 0 -0 -0 -0 -0 -0 -0 -0 -0 0 -0 -0 0 -0 -0 -0 0 0 0 0 0 0 0 0 0 0 0 0 0 0 0 0 0 0 0 0 0 0 0 0
-0 0 0 -0 -0 -0 0 -0 -0 -0 -0 -0 -0 -0 -0 0 0 -0 -0 -0 0 0 0 0 0 0 0 0 0 0 0 0 0 0 0 0 0 0 0 0 0 0 0
0 0 0 0 0 -0 0 0 0 -0 -0 -0 -0 -0 -0 -0 0 0 0 0 0 0 0 0 0 0 0 0 0 0 0 0 0 0 0 0 0 0 0 0 0 0 0
0 0 0 -0 0 0 0 0 -0 0 -0 -0 -0 -0 -0 0 0 0 0 0 0 0 0 0 0 0 0 0 0 0 0 0 0 0 0 0 0 0 0 0 0 0 0
0 0 0 0 0 0 0 0 0 0 0 0 0 0 0 0 0 0 0 0 0 0 0 0 0 0 0 0 0 0 0 0 0 0 0 0 0 0 0 0 0 0 0
0 0 0 0 0 0 0 0 0 0 0 0 0 0 0 0 0 0 0 0 0 0 0 0 0 0 0 0 0 0 0 0 0 0 0 0 0 0 0 0 0 0 0
0 0 0 0 0 0 0 0 0 0 0 0 0 0 0 0 0 0 0 0 0 0 0 0 0 0 0 0 0 0 0 0 0 0 0 0 0 0 0 0 0 0 0
0 0 0 0 0 0 0 0 0 0 0 0 0 0 0 0 0 0 0 0 0 0 0 0 0 0 0 0 0 0 0 0 0 0 0 0 0 0 0 0 0 0 0
0 0 0 0 0 0 0 0 0 0 0 0 0 0 0 0 0 0 0 0 0 0 0 0 0 0 0 0 0 0 0 0 0 0 0 0 0 0 0 0 0 0 0
0 0 0 0 0 0 0 0 0 0 0 0 0 0 0 0 0 0 0 0 0 0 0 0 0 0 0 0 0 0 0 0 0 0 0 0 0 0 0 0 0 0 0
0 0 0 0 0 0 0 0 0 0 0 0 0 0 0 0 0 0 0 0 0 0 0 0 0 0 0 0 0 0 0 0 0 0 0 0 0 0 0 0 0 0 0
0 0 0 0 0 0 0 0 0 0 0 0 0 0 0 0 0 0 0 0 0 0 0 0 0 0 0 0 0 0 0 0 0 0 0 0 0 0 0 0 0 0 0
0 0 0 0 0 0 0 0 0 0 0 0 0 0 0 0 0 0 0 0 0 0 0 0 0 0 0 0 0 0 0 0 0 0 0 0 0 0 0 0 0 0 0
0 0 0 0 0 0 0 0 0 0 0 0 0 0 0 0 0 0 0 0 0 0 0 0 0 0 0 0 0 0 0 0 0 0 0 0 0 0 0 0 0 0 0
0 0 0 0 0 0 0 0 0 0 0 0 0 0 0 0 0 0 0 0 0 0 0 0 0 0 0 0 0 0 0 0 0 0 0 0 0 0 0 0 0 0 0
0 0 0 0 0 0 0 0 0 0 0 0 0 0 0 0 0 0 0 0 0 0 0 0 0 0 0 0 0 0 0 0 0 0 0 0 0 0 0 0 0 0 0
Wind_Speed_500mb
17 27 23 20 18 15 17 18 13 16 17 17 14 15 16 15 16 14 10 6 1 5 19 21 21 23 25 24 21 24 32 36 38 38 35 34 32 29 29 28 30 30 29
23 28 23 20 16 14 13 11 12 13 13 14 10 8 10 10 12 9 2 2 10 22 20 24 23 25 27 26 31 37 38 39 38 35 30 23 21 26 26 27 27 25 21
27 32 25 21 16 13 10 9 8 7 10 13 12 7 7 10 11 8 6 18 17 19 17 20 23 25 28 29 31 33 40 42 43 36 24 18 17 17 20 18 15 14 14
28 31 26 22 15 12 10 9 11 13 11 13 9 14 11 10 12 9 16 14 16 19 17 16 17 22 25 28 29 33 32 35 36 31 23 12 19 19 18 19 19 18 17
32 26 24 18 17 14 12 12 14 12 8 7 8 13 12 12 13 14 16 14 13 16 16 18 13 17 19 22 24 26 28 31 31 22 15 15 9 16 19 20 20 20 18
25 28 22 17 15 12 12 12 11 11 7 7 4 9 12 14 14 16 14 14 11 11 12 12 10 13 14 17 19 20 21 26 22 16 11 3 5 10 16 18 19 19 19
23 26 23 19 15 11 8 9 7 6 6 11 4 4 7 7 8 14 13 11 10 7 8 6 7 9 8 9 13 15 15 18 18 11 3 9 8 8 9 15 18 18 18
27 25 24 22 17 12 8 6 5 5 10 18 12 7 3 7 7 10 9 12 11 10 7 6 8 5 4 5 5 7 8 9 13 8 5 9 9 8 7 12 14 15 15
24 24 22 23 18 15 11 9 7 7 8 8 3 12 10 8 12 10 11 11 11 11 9 6 5 4 3 2 1 3 4 5 4 4 4 9 9 9 9 10 11 12 12
18 24 22 21 20 16 14 13 12 11 11 10 7 11 18 14 8 11 14 13 12 13 11 9 10 9 8 8 7 6 5 3 4 6 9 10 10 11 10 9 9 9 8
25 19 21 24 20 17 15 16 14 14 14 14 13 13 17 14 10 9 11 15 16 14 13 12 12 14 15 14 13 13 12 11 12 10 14 16 14 14 14 13 10 9 8
33 37 31 29 27 23 21 17 17 17 17 17 17 16 17 16 11 19 17 16 16 18 18 17 17 18 20 19 18 16 18 18 17 17 19 21 19 18 18 18 15 13 10
20 27 33 31 30 30 28 23 21 20 18 20 20 20 16 18 24 30 28 24 24 23 23 22 22 23 23 23 22 22 23 22 23 22 22 26 24 23 23 22 22 19 17
23 20 24 28 33 32 31 32 27 22 21 22 20 21 21 22 26 26 28 31 26 26 23 24 24 22 24 24 25 28 30 31 30 29 29 32 29 28 27 27 27 26 25
27 27 22 25 28 31 36 34 34 31 32 29 29 29 29 28 27 28 27 28 32 30 30 27 28 29 30 29 30 32 32 33 34 34 36 38 38 34 34 32 32 32 31
32 29 29 26 27 30 33 36 36 34 34 35 34 33 32 32 31 29 29 32 33 34 34 33 31 33 33 33 33 34 35 36 37 39 41 42 42 39 37 38 38 37 36
34 33 32 32 31 33 35 36 39 38 36 38 39 37 39 36 35 36 33 33 34 34 35 37 37 36 38 38 39 39 40 39 41 40 42 44 44 44 42 40 41 41 40
28 31 31 36 42 40 36 38 42 44 44 43 45 44 42 43 38 41 41 39 36 36 37 38 38 40 41 39 39 39 41 42 44 43 43 45 46 46 47 45 42 44 46
35 33 37 40 41 42 42 41 40 40 41 46 50 49 51 50 48 44 45 44 42 41 41 40 39 40 40 40 42 42 41 44 45 47 49 48 47 47 49 51 50 47 48
43 45 41 39 40 40 38 41 42 42 47 47 48 51 48 50 55 52 48 47 47 48 47 45 44 41 43 42 43 44 46 51 50 51 49 49 49 48 50 51 51 50 49
44 42 44 41 41 45 46 45 45 49 51 53 53 53 54 52 45 56 57 52 50 52 49 48 48 47 46 43 43 48 52 48 45 44 37 37 38 39 35 37 37 35 36
47 43 47 52 49 47 52 52 50 48 49 48 49 49 55 55 53 50 57 58 53 53 51 48 47 47 48 42 42 40 41 46 44 27 27 31 30 34 40 41 42 40 45
50 53 54 48 48 49 52 52 51 46 46 50 49 46 52 56 51 50 54 56 54 53 54 52 51 51 50 50 49 42 17 17 25 30 26 39 48 45 41 49 54 49 49
38 39 46 51 50 42 43 50 54 55 54 53 50 44 43 36 51 52 52 57 56 53 55 56 55 54 52 56 53 56 57 57 49 41 56 50 50 63 65 62 57 54 52
50 58 57 53 45 45 48 50 48 51 49 39 31 34 33 32 39 38 46 53 56 55 54 57 57 57 58 62 62 59 59 60 60 64 51 64 60 59 59 57 56 58 58
32 30 29 31 39 44 48 53 55 54 49 47 44 37 33 31 29 29 30 36 42 44 46 48 49 50 49 54 57 59 60 58 62 58 69 66 72 62 62 57 61 63 60
Wind_Direction_500mb
177 156 143 131 124 116 115 121 133 138 126 108 107 109 99 101 135 136 134 127 345 110 86 91 92 88 90 86 97 101 100 96 93 82 72 78 76 76 74 76 77 81 79
168 159 143 135 133 124 114 125 125 144 152 154 127 128 117 113 129 144 195 152 112 91 86 92 87 88 86 86 95 101 104 100 94 81 72 54 72 74 67 65 67 71 65
169 157 148 139 134 127 115 119 127 142 170 176 181 162 139 162 150 146 118 98 95 94 98 85 85 86 88 93 102 102 102 94 85 70 62 25 56 60 49 44 48 48 35
159 155 149 142 135 131 122 123 117 108 127 118 151 161 138 136 158 147 127 108 102 100 86 88 84 87 90 94 98 103 98 97 96 89 83 38 32 43 39 41 41 36 30
145 153 156 144 136 131 122 123 123 144 142 87 139 138 134 114 130 139 121 127 111 104 97 102 95 96 94 94 94 94 92 87 79 66 88 75 35 35 32 37 37 39 40
158 162 163 156 141 123 122 119 130 162 143 126 67 120 132 131 143 149 129 131 147 120 109 93 114 107 102 96 91 88 88 84 79 93 61 312 103 42 31 33 38 42 48
177 170 173 170 159 146 128 120 119 142 151 156 172 298 156 144 150 153 148 153 159 148 143 138 114 115 117 105 93 87 87 93 88 97 103 28 45 58 31 30 30 36 43
181 179 178 178 176 167 152 149 155 152 153 178 187 174 165 177 170 183 174 175 182 195 183 187 154 140 108 96 92 84 86 84 81 353 356 22 22 30 27 15 27 33 39
192 179 183 189 191 189 181 178 197 192 196 228 284 187 197 216 184 200 198 194 218 205 220 216 187 212 236 261 353 20 42 68 98 322 357 2 353 353 3 5 15 24 36
207 195 188 196 199 207 208 203 202 208 213 222 222 225 206 224 199 203 209 218 225 221 229 226 220 233 256 267 277 291 296 291 277 313 313 315 320 326 332 343 354 7 11
190 186 200 202 210 209 211 209 219 223 226 231 229 224 244 255 248 243 228 230 236 246 244 243 239 241 250 257 265 275 279 277 278 278 271 294 300 304 308 316 326 332 337
212 193 199 211 209 210 209 231 221 232 235 238 242 242 239 237 248 272 248 246 254 258 259 256 254 250 251 259 265 268 277 274 273 276 275 288 292 295 295 299 302 304 306
225 211 211 215 213 215 216 229 233 237 233 238 239 245 237 233 219 240 254 261 265 264 266 270 268 266 262 261 265 276 279 279 278 278 279 283 287 288 287 288 289 289 286
231 219 214 217 223 226 225 222 231 232 244 250 250 246 249 243 245 251 250 259 255 259 259 267 265 267 263 264 265 264 270 276 282 282 278 282 287 284 280 280 280 280 280
228 232 226 223 226 225 230 233 233 229 233 245 245 247 246 248 249 254 258 255 262 263 267 263 263 268 270 271 273 274 274 276 279 280 280 282 284 283 282 279 276 276 275
220 227 241 245 234 233 233 234 240 238 234 241 240 249 251 249 250 253 255 254 255 260 263 263 263 265 269 274 278 280 283 283 284 284 285 285 286 286 283 281 278 275 275
226 228 234 252 255 245 240 238 239 244 243 241 243 241 250 253 251 254 256 257 257 258 260 261 261 260 265 271 277 280 283 286 284 284 286 286 287 289 287 282 280 276 274
239 240 246 240 251 258 252 248 245 244 245 246 245 250 248 255 256 253 255 257 260 260 259 260 262 263 266 271 276 281 284 285 285 286 285 285 288 289 289 287 281 278 275
229 235 245 245 245 246 261 261 252 249 252 249 248 251 245 248 255 255 257 259 259 258 260 262 262 264 269 274 280 282 282 282 287 291 292 291 290 287 286 284 282 278 272
242 241 231 233 246 253 248 249 251 250 260 262 262 262 257 243 246 253 255 258 257 257 259 261 265 266 268 271 275 275 279 282 290 289 291 292 288 286 287 288 286 284 280
236 227 223 231 238 247 248 244 242 246 249 255 261 264 266 266 247 246 253 252 253 257 261 261 264 266 267 270 276 279 283 286 285 291 294 295 293 289 287 290 294 296 295
247 249 246 248 243 239 250 255 253 257 258 256 256 256 263 263 265 253 243 251 252 253 255 258 256 263 269 264 264 277 289 296 299 301 307 309 303 297 291 288 289 291 287
251 252 256 251 247 248 239 245 254 252 245 249 252 257 254 257 255 256 237 243 248 248 256 260 253 250 259 269 266 260 260 263 283 294 282 294 299 287 291 292 291 286 287
224 225 235 247 253 245 242 237 243 244 246 252 263 272 274 255 247 255 247 241 245 249 253 257 260 257 257 263 263 262 263 263 268 279 280 279 280 285 291 291 294 294 294
242 244 249 252 244 236 229 226 233 240 239 246 247 258 252 245 249 254 249 246 245 248 252 255 258 257 258 257 262 261 262 263 266 264 267 278 277 277 280 283 279 282 289
232 233 234 228 233 236 234 234 232 234 245 247 240 238 244 240 257 251 247 245 246 248 254 260 259 262 264 259 260 262 263 261 264 268 267 271 280 285 287 280 280 286 290
Wind_Speed_850mb
17 27 23 20 18 15 17 18 13 16 17 17 14 15 16 15 16 14 10 6 1 5 19 21 21 23 25 24 21 24 32 36 38 38 35 34 32 29 29 28 30 30 29
23 28 23 20 16 14 13 11 12 13 13 14 10 8 10 10 12 9 2 2 10 22 20 24 23 25 27 26 31 37 38 39 38 35 30 23 21 26 26 27 27 25 21
27 32 25 21 16 13 10 9 8 7 10 13 12 7 7 10 11 8 6 18 17 19 17 20 23 25 28 29 31 33 40 42 43 36 24 18 17 17 20 18 15 14 14
28 31 26 22 15 12 10 9 11 13 11 13 9 14 11 10 12 9 16 14 16 19 17 16 17 22 25 28 29 33 32 35 36 31 23 12 19 19 18 19 19 18 17
32 26 24 18 17 14 12 12 14 12 8 7 8 13 12 12 13 14 16 14 13 16 16 18 13 17 19 22 24 26 28 31 31 22 15 15 9 16 19 20 20 20 18
25 28 22 17 15 12 12 12 11 11 7 7 4 9 12 14 14 16 14 14 11 11 12 12 10 13 14 17 19 20 21 26 22 16 11 3 5 10 16 18 19 19 19
23 26 23 19 15 11 8 9 7 6 6 11 4 4 7 7 8 14 13 11 10 7 8 6 7 9 8 9 13 15 15 18 18 11 3 9 8 8 9 15 18 18 18
27 25 24 22 17 12 8 6 5 5 10 18 12 7 3 7 7 10 9 12 11 10 7 6 8 5 4 5 5 7 8 9 13 8 5 9 9 8 7 12 14 15 15
24 24 22 23 18 15 11 9 7 7 8 8 3 12 10 8 12 10 11 11 11 11 9 6 5 4 3 2 1 3 4 5 4 4 4 9 9 9 9 10 11 12 12
18 24 22 21 20 16 14 13 12 11 11 10 7 11 18 14 8 11 14 13 12 13 11 9 10 9 8 8 7 6 5 3 4 6 9 10 10 11 10 9 9 9 8
25 19 21 24 20 17 15 16 14 14 14 14 13 13 17 14 10 9 11 15 16 14 13 12 12 14 15 14 13 13 12 11 12 10 14 16 14 14 14 13 10 9 8
33 37 31 29 27 23 21 17 17 17 17 17 17 16 17 16 11 19 17 16 16 18 18 17 17 18 20 19 18 16 18 18 17 17 19 21 19 18 18 18 15 13 10
20 27 33 31 30 30 28 23 21 20 18 20 20 20 16 18 24 30 28 24 24 23 23 22 22 23 23 23 22 22 23 22 23 22 22 26 24 23 23 22 22 19 17
23 20 24 28 33 32 31 32 27 22 21 22 20 21 21 22 26 26 28 31 26 26 23 24 24 22 24 24 25 28 30 31 30 29 29 32 29 28 27 27 27 26 25
27 27 22 25 28 31 36 34 34 31 32 29 29 29 29 28 27 28 27 28 32 30 30 27 28 29 30 29 30 32 32 33 34 34 36 38 38 34 34 32 32 32 31
32 29 29 26 27 30 33 36 36 34 34 35 34 33 32 32 31 29 29 32 33 34 34 33 31 33 33 33 33 34 35 36 37 39 41 42 42 39 37 38 38 37 36
34 33 32 32 31 33 35 36 39 38 36 38 39 37 39 36 35 36 33 33 34 34 35 37 37 36 38 38 39 39 40 39 41 40 42 44 44 44 42 40 41 41 40
28 31 31 36 42 40 36 38 42 44 44 43 45 44 42 43 38 41 41 39 36 36 37 38 38 40 41 39 39 39 41 42 44 43 43 45 46 46 47 45 42 44 46
35 33 37 40 41 42 42 41 40 40 41 46 50 49 51 50 48 44 45 44 42 41 41 40 39 40 40 40 42 42 41 44 45 47 49 48 47 47 49 51 50 47 48
43 45 41 39 40 40 38 41 42 42 47 47 48 51 48 50 55 52 48 47 47 48 47 45 44 41 43 42 43 44 46 51 50 51 49 49 49 48 50 51 51 50 49
44 42 44 41 41 45 46 45 45 49 51 53 53 53 54 52 45 56 57 52 50 52 49 48 48 47 46 43 43 48 52 48 45 44 37 37 38 39 35 37 37 35 36
47 43 47 52 49 47 52 52 50 48 49 48 49 49 55 55 53 50 57 58 53 53 51 48 47 47 48 42 42 40 41 46 44 27 27 31 30 34 40 41 42 40 45
50 53 54 48 48 49 52 52 51 46 46 50 49 46 52 56 51 50 54 56 54 53 54 52 51 51 50 50 49 42 17 17 25 30 26 39 48 45 41 49 54 49 49
38 39 46 51 50 42 43 50 54 55 54 53 50 44 43 36 51 52 52 57 56 53 55 56 55 54 52 56 53 56 57 57 49 41 56 50 50 63 65 62 57 54 52
50 58 57 53 45 45 48 50 48 51 49 39 31 34 33 32 39 38 46 53 56 55 54 57 57 57 58 62 62 59 59 60 60 64 51 64 60 59 59 57 56 58 58
32 30 29 31 39 44 48 53 55 54 49 47 44 37 33 31 29 29 30 36 42 44 46 48 49 50 49 54 57 59 60 58 62 58 69 66 72 62 62 57 61 63 60
Wind_Direction_850mb
177 156 143 131 124 116 115 121 133 138 126 108 107 109 99 101 135 136 134 127 345 110 86 91 92 88 90 86 97 101 100 96 93 82 72 78 76 76 74 76 77 81 79
168 159 143 135 133 124 114 125 125 144 152 154 127 128 117 113 129 144 195 152 112 91 86 92 87 88 86 86 95 101 104 100 94 81 72 54 72 74 67 65 67 71 65
169 157 148 139 134 127 115 119 127 142 170 176 181 162 139 162 150 146 118 98 95 94 98 85 85 86 88 93 102 102 102 94 85 70 62 25 56 60 49 44 48 48 35
159 155 149 142 135 131 122 123 117 108 127 118 151 161 138 136 158 147 127 108 102 100 86 88 84 87 90 94 98 103 98 97 96 89 83 38 32 43 39 41 41 36 30
145 153 156 144 136 131 122 123 123 144 142 87 139 138 134 114 130 139 121 127 111 104 97 102 95 96 94 94 94 94 92 87 79 66 88 75 35 35 32 37 37 39 40
158 162 163 156 141 123 122 119 130 162 143 126 67 120 132 131 143 149 129 131 147 120 109 93 114 107 102 96 91 88 88 84 79 93 61 312 103 42 31 33 38 42 48
177 170 173 170 159 146 128 120 119 142 151 156 172 298 156 144 150 153 148 153 159 148 143 138 114 115 117 105 93 87 87 93 88 97 103 28 45 58 31 30 30 36 43
181 179 178 178 176 167 152 149 155 152 153 178 187 174 165 177 170 183 174 175 182 195 183 187 154 140 108 96 92 84 86 84 81 353 356 22 22 30 27 15 27 33 39
192 179 183 189 191 189 181 178 197 192 196 228 284 187 197 216 184 200 198 194 218 205 220 216 187 212 236 261 353 20 42 68 98 322 357 2 353 353 3 5 15 24 36
207 195 188 196 199 207 208 203 202 208 213 222 222 225 206 224 199 203 209 218 225 221 229 226 220 233 256 267 277 291 296 291 277 313 313 315 320 326 332 343 354 7 11
190 186 200 202 210 209 211 209 219 223 226 231 229 224 244 255 248 243 228 230 236 246 244 243 239 241 250 257 265 275 279 277 278 278 271 294 300 304 308 316 326 332 337
212 193 199 211 209 210 209 231 221 232 235 238 242 242 239 237 248 272 248 246 254 258 259 256 254 250 251 259 265 268 277 274 273 276 275 288 292 295 295 299 302 304 306
225 211 211 215 213 215 216 229 233 237 233 238 239 245 237 233 219 240 254 261 265 264 266 270 268 266 262 261 265 276 279 279 278 278 279 283 287 288 287 288 289 289 286
231 219 214 217 223 226 225 222 231 232 244 250 250 246 249 243 245 251 250 259 255 259 259 267 265 267 263 264 265 264 270 276 282 282 278 282 287 284 280 280 280 280 280
228 232 226 223 226 225 230 233 233 229 233 245 245 247 246 248 249 254 258 255 262 263 267 263 263 268 270 271 273 274 274 276 279 280 280 282 284 283 282 279 276 276 275
220 227 241 245 234 233 233 234 240 238 234 241 240 249 251 249 250 253 255 254 255 260 263 263 263 265 269 274 278 280 283 283 284 284 285 285 286 286 283 281 278 275 275
226 228 234 252 255 245 240 238 239 244 243 241 243 241 250 253 251 254 256 257 257 258 260 261 261 260 265 271 277 280 283 286 284 284 286 286 287 289 287 282 280 276 274
239 240 246 240 251 258 252 248 245 244 245 246 245 250 248 255 256 253 255 257 260 260 259 260 262 263 266 271 276 281 284 285 285 286 285 285 288 289 289 287 281 278 275
229 235 245 245 245 246 261 261 252 249 252 249 248 251 245 248 255 255 257 259 259 258 260 262 262 264 269 274 280 282 282 282 287 291 292 291 290 287 286 284 282 278 272
242 241 231 233 246 253 248 249 251 250 260 262 262 262 257 243 246 253 255 258 257 257 259 261 265 266 268 271 275 275 279 282 290 289 291 292 288 286 287 288 286 284 280
236 227 223 231 238 247 248 244 242 246 249 255 261 264 266 266 247 246 253 252 253 257 261 261 264 266 267 270 276 279 283 286 285 291 294 295 293 289 287 290 294 296 295
247 249 246 248 243 239 250 255 253 257 258 256 256 256 263 263 265 253 243 251 252 253 255 258 256 263 269 264 264 277 289 296 299 301 307 309 303 297 291 288 289 291 287
251 252 256 251 247 248 239 245 254 252 245 249 252 257 254 257 255 256 237 243 248 248 256 260 253 250 259 269 266 260 260 263 283 294 282 294 299 287 291 292 291 286 287
224 225 235 247 253 245 242 237 243 244 246 252 263 272 274 255 247 255 247 241 245 249 253 257 260 257 257 263 263 262 263 263 268 279 280 279 280 285 291 291 294 294 294
242 244 249 252 244 236 229 226 233 240 239 246 247 258 252 245 249 254 249 246 245 248 252 255 258 257 258 257 262 261 262 263 266 264 267 278 277 277 280 283 279 282 289
232 233 234 228 233 236 234 234 232 234 245 247 240 238 244 240 257 251 247 245 246 248 254 260 259 262 264 259 260 262 263 261 264 268 267 271 280 285 287 280 280 286 290